Location: Ilia
(45.9333°N, 22.6500°E)
Time: 19:46:02
(UTC+00:00)

Daily predictions for brighter satellites

Satellite Brightness Start Highest point End
(mag) Time Altitude Azimuth Time Altitude Azimuth Time Altitude Azimuth
ATLAS 5 CENTAUR R/B 3.3 18:12:32 10° NNW 18:17:28 35° NE 18:23:10 10° ESE
Resurs 1-3 3.9 18:15:07 10° SSE 18:19:22 52° ENE 18:23:39 10° N
CZ-4 R/B 4.3 18:17:02 10° SW 18:19:37 16° W 18:22:11 10° NW
Cosmos 1743 Rocket 3.6 18:15:23 10° N 18:19:42 62° ENE 18:24:00 10° SSE
ERS-2 2.5 18:16:49 10° N 18:20:27 69° WNW 18:24:02 10° SSW
Cosmos 1486 Rocket 4.4 18:19:24 10° S 18:24:22 42° ESE 18:29:22 10° NE
S3M 4.5 18:20:42 10° SSE 18:26:39 43° E 18:32:35 10° NNE
Cosmos 1500 Rocket 3.5 18:27:17 10° N 18:31:44 84° E 18:36:05 10° S
IGS 5A 4.3 18:28:24 10° SE 18:32:10 35° ENE 18:35:57 10° N
Cosmos 2221 3.1 18:29:26 10° SSW 18:33:40 62° W 18:38:00 10° N
Cosmos 1862 4.5 18:36:06 10° NNW 18:39:56 45° W 18:43:46 10° SSW
USA 186 3.8 18:39:08 10° SSW 18:41:10 20° W 18:43:08 10° NW
Cosmos 1553 Rocket 4.0 18:39:07 10° S 18:45:13 84° E 18:51:28 10° N
FALCON 9 DEB 3.9 18:42:49 10° WNW 18:45:38 35° SW 18:48:00 13° SSE
Cosmos 1933 3.9 18:42:11 10° SSE 18:45:56 38° E 18:49:41 10° NNE
USA 245 4.3 18:46:32 11° E 18:47:11 12° ENE 18:48:12 10° NE
FALCON 9 DEB 4.2 18:49:11 10° WNW 18:51:52 29° SW 18:54:03 13° SSE
Cosmos 1242 Rocket 3.2 18:50:09 11° SSE 18:53:17 35° E 18:56:34 10° NNE
OBJECT-B 2.8 18:51:48 10° SSW 18:54:37 27° W 18:57:28 10° NW
Cosmos 1437 Rocket 2.7 18:51:56 10° S 18:55:46 90° WNW 18:59:44 10° N
Resurs 01 Rocket 1.6 18:52:09 10° SSE 18:56:32 74° ENE 19:00:59 10° N
DELTA 2 R/B (1) 4.1 18:51:51 10° WSW 18:57:03 41° S 19:01:06 16° SE
Spot 2 Rocket 4.4 18:54:01 14° SE 18:57:43 34° ENE 19:02:13 10° N
CZ-4C R/B 3.8 18:52:24 10° NNW 18:58:54 40° NE 19:06:07 11° ESE
Cosmos 2082 Rocket 4.3 18:56:36 10° N 18:59:55 16° NE 19:03:13 10° ENE
Meteor 1-20 Rocket 4.2 18:54:24 10° N 19:00:02 67° ENE 19:05:01 13° SSE
FALCON 9 DEB 4.0 18:57:52 10° WNW 19:00:38 32° SW 19:02:29 17° SSE
Sich 1 3.0 18:57:51 10° N 19:02:12 74° E 19:06:02 13° SSE
Intercosmos 24 3.6 18:59:18 10° S 19:03:12 71° E 19:06:45 10° NNE
OE (NEXTSAT) 4.3 19:00:19 10° W 19:03:47 87° N 19:06:50 13° E
Cosmos 1782 3.4 19:07:44 18° SSE 19:10:14 38° E 19:13:57 10° NNE
Cosmos 1500 4.5 19:07:42 10° NNE 19:10:52 25° ENE 19:12:18 20° ESE
ERS-1 Rocket 4.0 19:10:52 17° ESE 19:13:51 31° ENE 19:18:15 10° N
Cosmos 1503 Rocket 3.9 19:10:00 10° S 19:15:05 65° ESE 19:20:16 10° NNE
SPOT 5 4.0 19:13:38 18° ESE 19:16:36 33° ENE 19:21:14 10° N
Cosmos 1151 Rocket 3.1 19:21:15 18° S 19:24:22 58° E 19:28:40 10° NNE
Terra 3.1 19:23:30 19° ESE 19:25:46 27° ENE 19:29:45 10° N
Cosmos 2278 Rocket 3.2 19:23:59 22° SE 19:25:48 26° ESE 19:30:22 10° NE
USA 290 2.5 19:25:28 10° NNW 19:28:41 62° WSW 19:30:10 28° S
Cosmos 1602 3.6 19:25:11 10° N 19:29:04 81° E 19:31:09 26° SSE
Meteor 1-25 Rocket 4.4 19:23:51 10° NNW 19:29:42 76° W 19:34:41 15° S
USA 307 4.5 19:27:31 10° NW 19:31:22 31° NNE 19:35:13 10° ENE
CZ-2C R/B 3.6 19:30:13 10° NNE 19:34:42 87° WNW 19:39:14 10° SSW
Cosmos 1844 Rocket 3.6 19:32:40 10° SW 19:38:04 51° WNW 19:43:32 10° NNE
SPOT 1/Viking Rocket 3.6 19:36:10 21° S 19:39:46 82° WSW 19:45:00 10° NNW
MetOp-B 4.4 19:36:53 17° S 19:41:04 65° WSW 19:46:25 10° NNW
Cosmos 1515 Rocket 4.1 19:40:29 31° SE 19:41:50 40° E 19:45:58 10° NNE
Cosmos 2084 3.6 19:41:37 25° S 19:43:37 45° ESE 19:47:40 10° NE
SL-4 R/B 3.7 19:40:02 10° W 19:43:45 26° SW 19:45:35 20° S
USA 308 4.3 19:41:00 10° NW 19:44:57 34° NNE 19:48:19 13° ENE
ARIANE 5 R/B 2.5 19:43:07 31° SSE 19:45:11 81° ENE 19:49:32 10° NNW
Cosmos 1354 Rocket 4.1 19:41:08 10° SSW 19:46:21 80° WNW 19:51:38 10° NNE
X-37B 0.6 19:44:28 10° W 19:47:38 61° SSW 19:47:53 58° SSE
SWARM A 4.2 19:45:58 10° N 19:49:16 63° E 19:49:46 53° SE
JB-3 4.2 19:46:48 10° NNE 19:50:43 68° E 19:52:04 38° S
Cosmos 1633 Rocket 3.3 19:47:34 10° NNW 19:51:57 68° W 19:54:17 27° S
Cosmos 2184 Rocket 4.4 19:47:45 10° N 19:53:46 48° ENE 19:56:32 29° SE
Cosmos 1437 2.2 19:54:18 87° ESE 19:54:19 87° E 19:57:11 10° NNE
Milstar 3 4.4 19:44:53 10° SW 19:54:20 24° S 19:56:05 23° SSE
Cosmos 1709 Rocket 4.2 19:49:13 10° NNW 19:55:17 66° W 19:59:47 19° S
Cosmos 1812 2.7 19:56:30 47° SE 19:57:16 59° E 20:01:05 10° NNE
Meteor 1-5 Rocket 4.1 19:52:19 10° N 19:57:43 65° ENE 19:59:56 35° SSE
Cosmos 1470 Rocket 3.5 19:56:38 10° N 20:01:09 87° E 20:02:47 39° S
Cosmos 2074 Rocket 4.2 19:55:40 10° N 20:01:53 57° ENE 20:04:41 32° SE
ATLAS 5 CENTAUR R/B 2.7 19:56:49 10° NW 20:02:25 60° WSW 20:05:41 29° S
Cosmos 1328 Rocket 3.8 19:59:49 22° SSW 20:02:39 70° W 20:07:05 10° N
NOSS 3-3 (A) 3.8 19:57:32 10° SSW 20:03:14 83° SE 20:09:49 10° NE
NOSS 3-3 (C) 3.8 19:57:38 10° SSW 20:03:21 82° SE 20:09:55 10° NE
ATLAS 2AS CENTAUR R/B 3.9 20:00:56 10° NNW 20:07:46 36° NNE 20:13:08 14° E
CARTOSAT-1 3.8 20:07:01 35° S 20:08:42 63° WSW 20:13:01 10° NNW
Cosmos 2315 Rocket 4.5 20:04:48 10° SSW 20:11:05 62° WNW 20:17:27 10° N
Cosmos 1833 Rocket 2.7 20:06:08 10° NNW 20:11:50 75° ENE 20:14:00 39° SE
Meteor 1-14 Rocket 4.5 20:07:20 10° NNW 20:13:12 69° W 20:16:14 29° S
BREEZE-M R/B 2.8 20:12:54 10° W 20:15:12 45° NNW 20:15:12 45° NNW
Cosmos 1933 Rocket 3.4 20:11:21 10° N 20:15:43 82° E 20:16:40 54° SSE
USA 215 4.5 20:10:00 10° ENE 20:15:54 38° NNE 20:21:48 10° NW
Cosmos 1666 2.5 20:13:22 10° N 20:17:06 74° E 20:17:20 70° ESE
Cosmos 1538 Rocket 4.0 20:16:31 10° NNW 20:21:55 81° ENE 20:23:35 46° SSE
Iridium 4 Rocket 3.7 20:22:03 36° S 20:24:33 89° E 20:30:29 10° N
USA 305 3.6 20:23:06 10° NW 20:27:16 50° NNE 20:28:37 36° ENE
Resurs 01 Rocket 4.3 20:31:46 10° WSW 20:33:33 12° W 20:35:20 10° WNW
Cosmos 158 Rocket 3.9 20:29:53 10° NNW 20:34:44 63° ENE 20:35:40 52° ESE
BREEZE M DEB (TANK) 2.9 20:31:52 10° WNW 20:34:07 35° WNW 20:34:07 35° WNW
Meteor 1-27 Rocket 3.9 20:36:14 46° SE 20:37:38 58° E 20:43:25 10° NNE
SJ 16-02 1.2 20:38:19 68° S 20:38:52 83° ESE 20:43:19 10° NNE
Cosmos 1680 Rocket 4.3 20:34:44 10° N 20:39:47 41° ENE 20:41:08 35° E
Cosmos 2228 Rocket 2.9 20:40:06 69° SE 20:40:23 72° E 20:44:50 10° NNE
COSMOS 2406 3.3 20:36:31 10° NNW 20:42:09 66° WSW 20:43:43 46° S
Meteor 2-6 Rocket 4.5 20:41:14 29° SSW 20:43:57 62° WNW 20:49:25 10° N
Cosmos 2082 Rocket 2.2 20:39:26 10° NNW 20:45:04 72° ENE 20:46:28 50° SE
USA 306 3.1 20:42:12 10° NW 20:46:26 63° NNE 20:47:01 56° ENE
CZ-4C R/B 3.1 20:40:44 10° NW 20:48:00 68° WSW 20:51:18 39° SSE
ERS-1 Rocket 4.1 20:50:52 28° SW 20:52:34 36° W 20:57:12 10° NNW
SL-24 DEB 4.3 20:53:26 60° SW 20:54:05 69° W 20:58:41 10° N
SPOT 5 4.1 20:52:52 28° SW 20:54:35 36° W 20:59:22 10° NNW
H-2A R/B 4.2 20:52:45 10° N 20:56:49 48° WNW 20:57:49 39° WSW
Cosmos 1295 Rocket 4.4 20:53:04 10° N 20:59:27 85° E 21:01:13 51° SSE
Cosmos 1271 Rocket 3.4 21:00:22 47° W 21:00:44 49° WNW 21:04:40 10° N
Meteor 1-11 Rocket 3.9 20:55:08 10° NNW 21:01:07 72° W 21:02:44 49° SSW
Terra 2.7 21:02:23 34° SW 21:03:21 38° W 21:07:48 10° NNW
Cosmos 2278 Rocket 2.8 21:05:44 20° SW 21:09:31 53° WNW 21:15:05 10° NNE
USA 307 3.0 21:07:29 10° NW 21:11:25 73° NW 21:11:25 73° NW
Cosmos 1340 Rocket 3.1 21:10:30 10° N 21:14:05 66° NNE 21:14:05 66° NNE
Spot 4 3.9 21:14:20 62° E 21:14:38 63° ENE 21:19:28 10° N
Cosmos 923 Rocket 3.9 21:09:44 10° NNW 21:15:00 81° WSW 21:15:32 71° S
Cosmos 1898 Rocket 3.5 21:17:25 61° ESE 21:17:25 61° ESE 21:22:40 10° NNE
Cosmos 2369 Rocket 3.8 21:21:41 21° E 21:21:41 21° E 21:24:56 10° NE
Cosmos 1544 4.1 21:18:18 10° NNW 21:20:56 45° NNW 21:20:56 45° NNW
Cosmos 1869 Rocket 4.3 21:19:49 10° NNW 21:23:54 44° W 21:23:54 44° W
Cosmos 1536 3.6 21:20:17 10° NNW 21:23:48 45° WNW 21:23:48 45° WNW
USA 308 3.4 21:20:58 10° WNW 21:24:24 55° WNW 21:24:24 55° WNW
SL-8 Rocket 4.1 21:19:21 10° N 21:25:40 66° ENE 21:26:56 54° SE
Meteor 2-9 Rocket 4.5 21:22:11 10° N 21:27:54 55° ENE 21:28:43 51° ESE
Cosmos 1943 Rocket 2.6 21:30:26 46° E 21:30:26 46° E 21:35:27 10° NE
Cosmos 2084 Rocket 4.5 21:32:28 10° NNW 21:36:29 40° NE 21:36:50 39° NE
Cosmos 1975 4.0 21:33:29 10° N 21:36:27 36° NE 21:36:27 36° NE
ALOS 2 3.0 21:38:42 57° NE 21:38:42 57° NE 21:42:40 10° N
Meteor 2-4 Rocket 4.5 21:38:27 38° E 21:38:39 38° E 21:43:51 10° NNE
Cosmos 990 Rocket 4.1 21:40:01 63° WSW 21:40:40 71° WNW 21:45:57 10° NNE
Cosmos 44 3.5 21:36:26 10° NNW 21:41:54 72° NE 21:42:24 67° E
Cosmos 1707 Rocket 3.9 21:42:54 58° WNW 21:42:54 58° WNW 21:47:00 10° N
NOSS 3-4 (A) 4.1 21:38:42 10° NW 21:45:34 55° WSW 21:47:02 48° SSW
NOSS 3-4 (C) 4.1 21:38:48 10° NW 21:45:41 56° WSW 21:47:09 49° SSW
Meteor 1-18 Rocket 4.1 21:50:36 70° SE 21:50:56 73° E 21:56:33 10° NNE
Cosmos 2112 Rocket 4.2 21:48:32 10° NNW 21:53:48 59° WSW 21:53:50 59° WSW
Cosmos 864 Rocket 4.3 21:48:17 10° N 21:54:29 84° E 21:55:21 67° SSE
SL-24 R/B - RUBIN 2 3.8 21:51:17 10° NW 21:56:38 83° WNW 21:56:38 83° WNW
Cosmos 1238 Rocket 3.8 21:50:51 10° NNW 21:57:11 70° W 21:57:51 64° SW
Cosmos 1959 Rocket 4.3 21:51:04 10° N 21:57:21 90° WNW 21:58:15 68° S
Cosmos 1743 4.3 21:54:18 10° NNW 21:56:52 30° WNW 21:56:52 30° WNW
USA 215 3.4 21:55:03 31° ESE 21:58:21 72° NNE 22:04:53 10° NW
ATLAS 2AS CENTAUR R/B 2.6 21:52:02 10° NW 21:59:21 72° WSW 22:00:32 60° S
SeaSat 1 3.4 21:54:57 10° NE 21:58:33 34° E 21:58:33 34° E
Cosmos 2297 3.8 22:03:57 61° WSW 22:04:50 73° WNW 22:10:33 10° NNE
BREEZE-M DEB (TANK) 4.5 22:01:15 10° WNW 22:04:40 26° NNW 22:04:40 26° NNW
Cosmos 2181 Rocket 4.0 22:07:22 58° SW 22:08:27 71° W 22:14:36 10° N
Cosmos 1733 Rocket 4.2 22:12:46 10° NNW 22:16:02 34° WNW 22:16:02 34° WNW
SJ 16-02 4.1 22:15:55 10° W 22:18:04 13° NW 22:20:14 10° NNW
Cosmos 2366 rocket 4.1 22:17:17 10° NNW 22:23:20 58° W 22:24:07 54° WSW
Cosmos 1937 Rocket 4.0 22:24:06 48° W 22:24:41 51° WNW 22:29:44 10° NNE
Cosmos 1821 Rocket 4.1 22:18:40 10° N 22:25:05 69° E 22:26:15 57° SE
Thor Agena Rocket 3.4 22:22:30 10° NNE 22:27:46 82° ESE 22:27:48 81° ESE
Cosmos 1818 3.5 22:22:23 10° NW 22:27:40 73° W 22:27:40 73° W
Cosmos 2082 Rocket 4.0 22:24:47 10° WNW 22:28:19 18° W 22:28:19 18° W
Cosmos 1908 Rocket 4.0 22:24:10 10° NNW 22:27:56 60° NNW 22:27:56 60° NNW
Cosmos 2298 Rocket 4.3 22:34:35 53° E 22:34:35 53° E 22:39:29 10° NNE
Cosmos 1048 Rocket 4.2 22:30:00 10° NNW 22:35:19 64° ENE 22:35:46 61° E
Resurs 1-4 Rocket 4.4 22:34:07 10° ENE 22:36:02 12° E 22:37:05 11° E
Gbstr 26 Del rocket 3.8 22:31:09 10° WNW 22:38:12 85° NNE 22:40:00 48° ESE
Nimbus 7 Rocket 4.4 22:32:43 10° N 22:38:34 70° WNW 22:39:29 60° WSW
USA 281 4.2 22:36:11 19° ESE 22:40:28 40° NE 22:46:30 10° NNW
Cosmos 1356 Rocket 4.2 22:38:01 10° N 22:41:40 50° NE 22:41:40 50° NE
Cosmos 1461 3.4 22:53:28 67° NNW 22:53:28 67° NNW 22:57:52 10° NNE
Cosmos 1703 Rocket 4.2 22:57:18 48° NW 22:57:18 48° NW 23:01:02 10° N
Cosmos 2221 Rocket 4.5 22:59:47 41° E 22:59:47 41° E 23:03:51 10° NNE
Cosmos 1782 Rocket 4.1 22:55:36 10° NNW 22:59:17 54° NW 22:59:17 54° NW
Nadezhda 3 Rocket 3.9 23:02:11 61° SW 23:03:13 74° W 23:09:28 10° N
Cosmos 1378 4.4 23:04:38 40° N 23:04:38 40° N 23:07:08 10° N
Cosmos 2369 Rocket 2.4 23:03:27 55° W 23:04:17 62° WNW 23:09:54 10° NNE
Cosmos 2150 Rocket 3.9 23:04:47 83° SSW 23:05:01 90° SW 23:10:23 10° NNE
Lacrosse 5 3.8 23:11:02 17° ESE 23:11:02 17° ESE 23:13:18 10° E
Meteor 1-13 Rocket 4.1 23:09:32 71° SW 23:10:02 77° WNW 23:15:36 10° N
RESURS DK-1 3.1 23:06:45 10° NNW 23:09:53 50° NNW 23:09:53 50° NNW
Meteor 1-12 Rocket 4.2 23:06:44 10° NNW 23:12:36 68° W 23:13:07 64° SW
Gblst 52 Del rocket 4.2 23:06:07 10° WNW 23:12:42 84° SSW 23:14:42 44° SE
Cosmos 1943 Rocket 3.5 23:11:55 24° W 23:14:01 31° NW 23:19:00 10° N
SL-27 R/B 4.4 23:11:48 10° NNW 23:13:17 25° NNW 23:13:17 25° NNW
Cosmos 1805 4.0 23:11:31 10° N 23:14:33 51° N 23:14:33 51° N
Cosmos 1733 4.1 23:13:49 10° N 23:16:42 47° NNE 23:16:42 47° NNE
PSLV R/B 4.1 23:14:24 10° N 23:18:26 53° NW 23:18:26 53° NW
Cosmos 1726 4.5 23:16:14 10° NNE 23:18:44 17° ENE 23:19:29 16° E
Cosmos 1867 3.4 23:18:57 73° SW 23:19:29 84° NW 23:25:00 10° NE
Cosmos 1607 4.0 23:19:25 56° SW 23:20:54 84° NW 23:27:27 10° NE
Cosmos 1766 3.9 23:17:41 10° N 23:21:04 53° NE 23:21:04 53° NE
Helios 1B rocket 4.2 23:20:24 10° NE 23:23:39 22° E 23:23:44 22° E
Cosmos 2263 4.5 23:22:37 51° WSW 23:23:44 61° WNW 23:29:30 10° NNE
Cosmos 1066 Rocket 4.2 23:26:45 62° SW 23:27:34 73° WNW 23:33:18 10° N
Okean 3 4.2 23:28:08 44° NW 23:28:08 44° NW 23:31:47 10° N
EO 1 Del DPAF 4.5 23:24:53 10° N 23:27:38 35° NW 23:27:38 35° NW
Meteor 1-23 Rocket 4.2 23:28:21 65° S 23:29:18 87° E 23:35:10 10° NNE
Cosmos 1605 Rocket 4.0 23:24:05 10° N 23:30:20 77° E 23:32:12 48° SSE
Helios 1A 3.1 23:31:38 67° NNW 23:31:38 67° NNW 23:35:18 10° NNW
ATLAS CENTAUR R/B 2.0 23:33:01 47° NE 23:33:01 47° NE 23:35:48 10° NE
Cosmos 1400 Rocket 3.7 23:32:04 10° N 23:36:02 44° ENE 23:36:19 43° E
Sich 1 Rocket 4.0 23:31:34 10° NNW 23:35:34 52° WNW 23:35:34 52° WNW
Cosmos 1125 Rocket 3.6 23:35:51 58° W 23:36:28 63° WNW 23:41:40 10° NNE
SeaSat 1 3.6 23:32:32 10° NNE 23:37:01 35° NW 23:38:19 30° W
Okean 1 Rocket 4.0 23:33:16 10° N 23:37:28 40° ENE 23:38:20 36° ESE
Cosmos 1656 Rocket 4.1 23:39:04 43° W 23:40:12 51° WNW 23:45:36 10° NNE
Cosmos 494 Rocket 4.3 23:35:34 10° NNW 23:40:14 48° W 23:40:14 48° W
USA 215 3.8 23:42:21 38° WSW 23:42:21 38° WSW 23:47:43 10° WNW
USA 81 3.9 23:36:23 10° N 23:41:43 85° W 23:42:25 68° S
Cosmos 1470 3.9 23:39:52 10° N 23:43:31 37° ENE 23:43:58 35° E
Cosmos 1674 Rocket 3.5 23:49:59 74° ESE 23:50:09 76° E 23:54:37 10° NNE
Cosmos 2227 Rocket 4.4 23:46:07 10° N 23:50:41 24° NE 23:55:14 10° ESE
CZ-2D R/B 2.6 23:47:09 10° NNE 23:52:29 53° E 23:53:56 41° SSE
Cosmos 2297 Rocket 3.9 23:49:32 10° N 23:54:35 31° NE 23:59:35 10° ESE
